Location: Unspecified
(0.0000°N, 0.0000°E)
Time: 15:49:42
(UTC+00:00)

COSMOS 2501 (GLONASS) - Pass Details

Date: 27 October 2019
Orbit: 19086 x 19174 km, 64.0° (Epoch: 13 November)

Event Time Altitude Azimuth Distance (km) Brightness Sun altitude
Rises 12:25:12 0° 204° (SSW) 24,675 ? 73.6°
Reaches altitude 10° 12:58:38 10° 193° (SSW) 23,599 ? 67.5°
Maximum altitude 15:32:06 81° 88° (E) 19,221 ? 32.0°
Drops below altitude 10° 17:56:03 10° 16° (NNE) 23,635 ? -3.0°
Sets 18:22:24 0° 22° (NNE) 24,714 ? -9.4°
